Skip Page Navigation
NASA JPL Caltech
NASA Logo - Jet Propulsion Laboratory + View the NASA Portal
+ Center for Near-Earth Object Studies
JPL Home Earth Solar System Stars & Galaxies Technology
JPL Solar System Dynamics
BODIES ORBITS EPHEMERIDES TOOLS PHYSICAL DATA DISCOVERY FAQ SITE MAP
IMPORTANT: The SSD Announcement email list is now available. Major changes are coming in the near future, including possible hostname and/or URL changes. To be notified of such changes, subscribe to this email list.

Please visit this page for more details.


JPL Small-Body Database Browser
Search: [ help ]  
452065 (2014 OC313)
Classification: Main-belt Asteroid          SPK-ID: 2452065
Ephemeris | Orbit Diagram | Orbital Elements | Mission Design | Physical Parameters | Discovery Circumstances ]

[ show orbit diagram ]
Orbital Elements at Epoch 2458600.5 (2019-Apr-27.0) TDB
Reference: JPL 13 (heliocentric ecliptic J2000)
 Element Value Uncertainty (1-sigma)   Units 
e .07998531158409332 6.9449e-08  
a 2.866978062383267 4.0057e-08 au
q 2.637661928758781 2.1102e-07 au
i 1.997831198782086 7.1754e-06 deg
node 13.26920039667677 0.00029805 deg
peri 355.3076955286569 0.0003089 deg
M 294.9861973102894 7.8443e-05 deg
tp 2458920.712329253428
(2020-Mar-12.21232925)
0.00038761 TDB
period 1773.107152052167
4.85
3.7161e-05
1.017e-07
d
yr
n .2030334148634737 4.2552e-09 deg/d
Q 3.096294196007753 4.3261e-08 au
  Orbit Determination Parameters
   # obs. used (total)      77  
   data-arc span      5097 days (13.95 yr)  
   first obs. used      2005-10-11  
   last obs. used      2019-09-25  
   planetary ephem.      DE431  
   SB-pert. ephem.      SB431-N16  
   condition code      0  
   norm. resid. RMS      .58081  
   source      ORB  
   producer      Otto Matic  
   solution date      2019-Nov-08 16:47:12  

Additional Information
 Earth MOID = 1.63569 au 
 Jupiter MOID = 2.31686 au 
 T_jup = 3.294 
[ show covariance matrix ]

Ephemeris | Orbit Diagram | Orbital Elements | Mission Design | Physical Parameters | Discovery Circumstances ]

Physical Parameter Table
Parameter Symbol Value Units Sigma Reference Notes
absolute magnitude H 17.6   n/a MPO361088  

452065 (2014 OC313)          Discovered 2005-Oct-11 by Spacewatch at Kitt Peak
Reference: Last Updated: 2015-11-30
Ephemeris | Orbit Diagram | Orbital Elements | Mission Design | Physical Parameters | Discovery Circumstances ]
ABOUT SSD CREDITS/AWARDS PRIVACY/COPYRIGHT GLOSSARY LINKS
FirstGov 2019-Dec-15 06:08 UT
(server date/time)  
NASA Home Page
Site Manager:   Ryan S. Park
Webmaster  Alan B. Chamberlin